Volver al catálogo

QPS-SAR-13

ActivoVLEO
NORAD 100243·PAYLOAD·🇯🇵 Japan

Lanzado Aug 6, 2026 desde Rocket Lab Launch Complex 1

Loading…

Próximos Pases (próximas 24 horas)

TLE

ActualizadoSource: Space-Track

Época: Sep 14, 2026, 03:59 UTC

1 A0243U 26180A   26257.16641640  .00001518  00000-0  14364-3 0  9992
2 A0243  42.0017 176.6277 0007886 171.9573 188.1379 14.97396097  5820

Sigue QPS-SAR-13 en tiempo real con AllMySat

Download on the App Store